{"data":{"norad_id":62691,"intl_designator":"2025-009CL","name":"TRANSPORTER-12 OBJECT CL","alt_names":[],"object_type":"PAYLOAD","status":"ACTIVE","operator":null,"country":"TBD","launch_date":"2025-01-14","launch_site_code":"AFWTR","launch_vehicle":null,"mission":null,"orbit_class":"UNKNOWN","rcs_meters":null,"size_class":null,"mass_kg":null,"dimensions":null,"purposes":[],"wikipedia_slug":null,"has_3d_model":false,"image_url":null,"decayed_at":null,"tle_current":{"epoch":"2026-09-22T17:43:00.968160Z","epoch_age_seconds":126130,"freshness":"FRESH","line1":"1 62691U 25009CL  26265.73820565  .00040544  00000+0  63089-3 0  9992","line2":"2 62691  97.3687 353.1018 0001752 215.5543 144.5594 15.53805085 94305","mean_motion":15.53805085,"eccentricity":0.0001752,"inclination_deg":97.3687,"raan_deg":353.1018,"arg_perigee_deg":215.5543,"mean_anomaly_deg":144.5594,"bstar":0.00063089,"rev_number":9430,"period_min":92.675716787219,"perigee_km":404.43980991488,"apogee_km":406.81684128497,"semimajor_km":6783.7653255999,"source":"CELESTRAK","updated_at":"2026-09-23T09:00:21.550865Z"}}}